AMC-8 (GE-8)

Last updated on Tue Dec 27 2022 00:02:42 GMT+0000 (Coordinated Universal Time)

1 26639U 00081B 22360.50894862 -.00000133 00000+0 00000+0 0 9996 2 26639 2.8445 87.7594 0005137 210.2943 86.0681 0.99148863 80609
UTC large
Height (km)
Speed (km/s)
/
Latitude / Longitude
Inclination (degrees)
Orbital Period (minutes)
Azimuth
Elevation
Range (km)
Doppler Factor

Next 0 passes for location: London (51.5072 / 0.1276)

Sorry there are no passes over London.
AMC-8 (GE-8)